Regional Weather Roundup
Issued by NWS Little Rock, AR

Home | Current Version | Previous Version | Text Only | Print | Product List | Glossary Off
Versions: 1 2 3 4 5 6 7 8 9 10 11 12 13 14 15 16 17 18 19 20 21 22 23 24 25 26 27 28 29 30 31 32 33 34 35 36 37 38 39 40 41 42 43 44 45 46 47 48 49 50

496
ASUS44 KLZK 171305
RWRLZK

WEATHER ROUNDUP FOR ARKANSAS
NATIONAL WEATHER SERVICE LITTLE ROCK AR
800 AM CDT THU AUG 17 2017

NOTE: "FAIR" INDICATES FEW OR NO CLOUDS BELOW 12,000 FEET WITH NO
SIGNIFICANT WEATHER AND/OR OBSTRUCTIONS TO VISIBILITY.

ARZ001-003-010-029-171400-
NORTHWEST ARKANSAS

CITY           SKY/WX    TMP DP  RH WIND       PRES   REMARKS
FAYETTEVILLE   PTSUNNY   70  70 100 S6        30.01R
FORT SMITH     CLOUDY    73  71  93 SW3       30.00R
HARRISON       CLOUDY    69  69 100 SE5       30.01R
BENTONVILLE    PTSUNNY   70  66  88 SW7       30.01R
ROGERS         CLOUDY    69  68  96 SW7       30.01R
SILOAM SPGS    PTSUNNY   70  66  88 SW5       30.00R
HIGHFILL       CLOUDY    70  70 100 SW3       30.01R
SPRINGDALE     MOSUNNY   70  70 100 SW5       30.02R
$$

ARZ004-005-016-171400-
NORTH CENTRAL ARKANSAS

CITY           SKY/WX    TMP DP  RH WIND       PRES   REMARKS
BATESVILLE     CLOUDY    70  68  94 CALM      30.00R
FLIPPIN        CLOUDY    70  64  83 CALM      29.98R
MTN HOME       CLOUDY    68  68 100 S5        30.00R
$$

ARZ040-041-171400-
WEST CENTRAL ARKANSAS

CITY           SKY/WX    TMP DP  RH WIND       PRES   REMARKS
MENA           CLOUDY    73  72  94 CALM      30.05R
MOUNT IDA      LGT RAIN  73  70  90 CALM      30.00R
$$

ARZ009-017-025-026-028-171400-
NORTHEAST ARKANSAS

CITY           SKY/WX    TMP DP  RH WIND       PRES   REMARKS
JONESBORO      CLOUDY    77  76  96 SW7       29.97R
NEWPORT        RAIN      73  71  93 CALM      29.98R FOG
WALNUT RIDGE   CLOUDY    73  70  88 CALM      29.96S
BLYTHEVILLE    CLOUDY    77  76  96 SW13      29.98R
$$

ARZ022-023-033-042-044-171400-
CENTRAL ARKANSAS

CITY           SKY/WX    TMP DP  RH WIND       PRES   REMARKS
LITTLE ROCK    LGT RAIN  75  74  96 N7        29.99S
N LITTLE ROCK    N/A     73  71  94 CALM      29.98S
JACKSONVILLE   LGT RAIN  73  73 100 CALM      29.98S
CONWAY           N/A     73  72  94 NE6       29.95F
SEARCY           N/A    N/A N/A N/A MISG        N/A
HOT SPRINGS    RAIN      76  75  97 W8        30.00R FOG
RUSSELLVILLE   CLOUDY    72  72 100 N5        29.98R
CLINTON        LGT RAIN  70  70 100 CALM      30.00R
$$

ARZ036-171400-
EAST ARKANSAS

CITY           SKY/WX    TMP DP  RH WIND       PRES   REMARKS
WEST MEMPHIS   CLOUDY    78  76  93 SW6       29.99R
$$

ARZ050-053-066-070-073-171400-
SOUTHWEST ARKANSAS

CITY           SKY/WX    TMP DP  RH WIND       PRES   REMARKS
ARKADELPHIA    LGT RAIN  77  73  87 W9G18     30.00R
CAMDEN         CLOUDY    81  75  83 S7G13     29.99S HX  86
TEXARKANA      LGT RAIN  69  69 100 W6        30.06R
EL DORADO      CLOUDY    81  77  88 S10       30.02R HX  88
DE QUEEN       LGT RAIN  71  71 100 S5        30.01R
$$

ARZ056-057-069-171400-
SOUTHEAST ARKANSAS

CITY           SKY/WX    TMP DP  RH WIND       PRES   REMARKS
PINE BLUFF     CLOUDY    79  76  90 SW8       30.00R
MONTICELLO     CLOUDY    81  76  84 SW10      30.02R HX  87

$$






USA.gov is the U.S. government's official web portal to all federal, state and local government web resources and services.